STARLINK-2194, 47771

Orbit data source: Space-Track

STARLINK-2194, 47771 is a payload satellite owned by SpaceX/Seattle (US) in LEO that was launched on Thu, 04 Mar 2021 UTC via an FALCON 9 launch vehicle from the Air Force Eastern Test Range (AFETR). Payload-class satellites include a variety of spacecraft equipped with specific instruments for various scientific and technological missions. These include communications satellites like Starlink; space stations such as the ISS; scientific satellites like the Hubble; Earth observation satellites from companies like Planet Labs, Umbra, and HawkEye 360; GPS; miniature CubeSats for education and research; and military/defense satellites.

Loading next visibility...
Identifier
47771, 2021-017BB
Orbit
LEO
Country
Flag of USUS
Related business
Manufacturer
SpaceX/Seattle
Mission
Operational Commercial Communications
Bus & Motor
STARLINK, Unknown motor
Mass
260 kg wet, ~248 kg dry
Launch date (UTC)
2021-03-04 (5 years ago)
Launch vehicle
FALCON 9
Launch site
Air Force Eastern Test Range (AFETR)
Object type
Payload
Rocket body
Debris
Shape & HBR
Box + 1 Pan, 10.1 m
Radar Cross Section
13.562 m², Large (>1 m²)

Expand to show TLE details & history
Last TLE update: 15 hours ago

TLE from 15 hours ago
0 STARLINK-2194
1 47771U 21017BB  25346.98400827 -.00003786  00000-0 -23550-3 0  9999
2 47771  53.0538 235.8532 0001306  97.3650 262.7488 15.06391201264760
Epoch: 2025-12-12T23:36Z
TLE epoch observation values (Epoch: 2025-12-12T23:36:58.314Z)
Latitude
0.00002°
Longitude
159.69245°
Altitude
548.232 km
Speed
7.589 km/s
True Right ascension
15h 43m 24s
True Declination
0° 00' 00"
Sunlit
Object was in daylight at epoch
Visualization orbit readout
Latitude
Unknown
Longitude
Unknown
Altitude
Unknown
Speed
Unknown
Apparent Right ascension
Unknown
Apparent Declination
Unknown
Sunlit
N/A
Visualization observer readout
Local Sidereal Time
12:54:30
Azimuth
Unknown
Elevation
Unknown
Doppler factor
Unknown
Orbital elements
Apogee altitude
548.414 km
Perigee altitude
546.605 km
Semi-major axis
6,925.646 km
Eccentricity
0.00013
Inclination
53.0538°
RAAN
235.8532°
Arg. of periapsis
97.365°
True anomaly
262.73395°
Mean anomaly
262.7488°
Eccentric anomaly
262.74138°
Mean motion
3.76576 °/min
Orbital period
95.6 mins
BSTAR
-0.0002355
Loading maneuver chart data...
Computing Atmospheric mass density...
Loading historical data...
Loading historical data...
Loading historical data...
Loading historical data...
Loading historical data...
Loading historical data...
Loading historical data...

Documentation

Showing up to 5 results
|